Location: Ballingbuur
(53.0000°N, 5.7667°E)
Time: 20:03:21
(UTC+00:00)

Cosmos 2263 Rocket - Pass Details

Date: 29 November 2020
Orbit: 823 x 848 km, 71.0° (Epoch: 25 January)

Event Time Altitude Azimuth Distance (km) Brightness Sun altitude
Exits shadow 03:00:56 27° 93° (E) 1,570 4.0 -38.5°
Drops below altitude 10° 03:05:00 10° 48° (NE) 2,482 5.2 -37.9°
Sets 03:07:46 0° 37° (NE) 3,424 6.0 -37.5°
